BAW641 EDDF-EDDP

Flight info

Callsign BAW641
Flight time 0h 47m
Altitude 21000
Route SULUS7S SULUS Z12 LASGA T953 VOCIM T954 GOXLI GOXLI1V
Aircraft A320/M-SDE3FGHIKRWXY/S

Departure

Time 2026-04-16 10:46
Airport Frankfurt Main Airport (EDDF)

Arrival

Time 2026-04-16 11:34
Airport Leipzig/Halle Airport (EDDP)
Time Latitude Longitude Altitude Speed Heading
2026-04-16 09:58 50.05029 8.58531 360 ft 0 kts 340°
2026-04-16 10:34 50.05031 8.58530 359 ft 0 kts 340°
2026-04-16 10:35 50.05021 8.58535 359 ft 2 kts 340°
2026-04-16 10:35 50.05006 8.58544 365 ft 2 kts 340°
2026-04-16 10:35 50.04990 8.58553 363 ft 2 kts 340°
2026-04-16 10:35 50.04975 8.58561 361 ft 2 kts 340°
2026-04-16 10:36 50.04960 8.58570 367 ft 2 kts 340°
2026-04-16 10:36 50.04945 8.58579 359 ft 2 kts 340°
2026-04-16 10:36 50.04930 8.58589 362 ft 2 kts 294°
2026-04-16 10:36 50.04928 8.58596 359 ft 0 kts 279°
2026-04-16 10:37 50.04933 8.58575 359 ft 6 kts 296°
2026-04-16 10:37 50.04936 8.58543 362 ft 0 kts 262°
2026-04-16 10:38 50.04935 8.58532 359 ft 3 kts 262°
2026-04-16 10:38 50.04929 8.58491 359 ft 6 kts 253°
2026-04-16 10:38 50.04909 8.58405 362 ft 11 kts 249°
2026-04-16 10:38 50.04880 8.58283 362 ft 13 kts 249°
2026-04-16 10:39 50.04844 8.58135 366 ft 16 kts 249°
2026-04-16 10:39 50.04798 8.57970 361 ft 17 kts 234°
2026-04-16 10:39 50.04699 8.57844 364 ft 20 kts 238°
2026-04-16 10:39 50.04649 8.57654 358 ft 17 kts 249°
2026-04-16 10:40 50.04605 8.57468 358 ft 20 kts 250°
2026-04-16 10:40 50.04557 8.57251 361 ft 22 kts 250°
2026-04-16 10:40 50.04500 8.57018 365 ft 24 kts 249°
2026-04-16 10:40 50.04439 8.56771 361 ft 20 kts 248°
2026-04-16 10:41 50.04397 8.56601 363 ft 18 kts 249°
2026-04-16 10:41 50.04349 8.56397 360 ft 22 kts 250°
2026-04-16 10:41 50.04293 8.56162 355 ft 24 kts 250°
2026-04-16 10:41 50.04243 8.55956 354 ft 21 kts 250°
2026-04-16 10:42 50.04189 8.55720 357 ft 25 kts 250°
2026-04-16 10:42 50.04133 8.55484 353 ft 18 kts 248°
2026-04-16 10:42 50.04086 8.55293 353 ft 20 kts 252°
2026-04-16 10:42 50.04040 8.55079 353 ft 22 kts 251°
2026-04-16 10:43 50.03983 8.54840 354 ft 25 kts 248°
2026-04-16 10:43 50.03913 8.54567 351 ft 29 kts 248°
2026-04-16 10:43 50.03865 8.54383 355 ft 18 kts 244°
2026-04-16 10:43 50.03796 8.54202 345 ft 21 kts 250°
2026-04-16 10:44 50.03741 8.53973 347 ft 24 kts 248°
2026-04-16 10:44 50.03679 8.53713 342 ft 27 kts 250°
2026-04-16 10:44 50.03606 8.53426 336 ft 30 kts 248°
2026-04-16 10:44 50.03540 8.53168 336 ft 17 kts 251°
2026-04-16 10:45 50.03498 8.52975 335 ft 21 kts 249°
2026-04-16 10:45 50.03439 8.52752 331 ft 24 kts 247°
2026-04-16 10:45 50.03339 8.52600 333 ft 22 kts 199°
2026-04-16 10:45 50.03057 8.52595 335 ft 73 kts 180°
2026-04-16 10:46 50.02331 8.52604 335 ft 133 kts 180°
2026-04-16 10:46 50.01274 8.52624 474 ft 162 kts 179°
2026-04-16 10:46 50.00137 8.52648 1106 ft 162 kts 179°
2026-04-16 10:46 49.99010 8.52638 1727 ft 166 kts 179°
2026-04-16 10:47 49.97793 8.52734 2073 ft 187 kts 167°
2026-04-16 10:47 49.96547 8.53639 2360 ft 212 kts 141°
2026-04-16 10:47 49.95613 8.55521 2873 ft 228 kts 118°
2026-04-16 10:47 49.94833 8.57711 3655 ft 234 kts 119°
2026-04-16 10:48 49.94171 8.60030 4518 ft 239 kts 104°
2026-04-16 10:48 49.93957 8.62719 4984 ft 263 kts 94°
2026-04-16 10:48 49.93990 8.65621 5738 ft 274 kts 84°
2026-04-16 10:48 49.94191 8.68588 6635 ft 278 kts 84°
2026-04-16 10:49 49.94416 8.71597 7512 ft 283 kts 83°
2026-04-16 10:49 49.94649 8.74651 8363 ft 287 kts 83°
2026-04-16 10:49 49.94884 8.77759 9208 ft 292 kts 83°
2026-04-16 10:49 49.95118 8.80913 10019 ft 296 kts 83°
2026-04-16 10:50 49.95356 8.84145 10557 ft 311 kts 83°
2026-04-16 10:50 49.95610 8.87613 10811 ft 335 kts 83°
2026-04-16 10:50 49.95875 8.91251 11203 ft 349 kts 83°
2026-04-16 10:50 49.96147 8.95039 11855 ft 356 kts 83°
2026-04-16 10:51 49.96423 8.98892 12545 ft 361 kts 83°
2026-04-16 10:51 49.96700 9.02787 13217 ft 366 kts 83°
2026-04-16 10:51 49.96980 9.06743 13865 ft 370 kts 83°
2026-04-16 10:51 49.97262 9.10737 14533 ft 374 kts 83°
2026-04-16 10:52 49.97547 9.14786 15164 ft 379 kts 83°
2026-04-16 10:52 49.97834 9.18884 15786 ft 383 kts 83°
2026-04-16 10:52 49.98121 9.23017 16380 ft 387 kts 83°
2026-04-16 10:52 49.98410 9.27189 16952 ft 391 kts 83°
2026-04-16 10:53 49.98701 9.31408 17550 ft 395 kts 83°
2026-04-16 10:53 49.98994 9.35677 18122 ft 399 kts 83°
2026-04-16 10:53 49.99289 9.39995 18689 ft 403 kts 83°
2026-04-16 10:53 49.99583 9.44352 19280 ft 407 kts 83°
2026-04-16 10:54 49.99877 9.48747 19888 ft 411 kts 83°
2026-04-16 10:54 50.00171 9.53184 20451 ft 415 kts 83°
2026-04-16 10:54 50.00470 9.57666 20986 ft 419 kts 83°
2026-04-16 10:54 50.00772 9.62190 21202 ft 421 kts 83°
2026-04-16 10:55 50.01072 9.66713 21248 ft 431 kts 83°
2026-04-16 10:55 50.01376 9.71369 21249 ft 434 kts 83°
2026-04-16 10:55 50.01678 9.76034 21248 ft 435 kts 83°
2026-04-16 10:55 50.01978 9.80715 21247 ft 435 kts 83°
2026-04-16 10:56 50.02278 9.85390 21248 ft 435 kts 83°
2026-04-16 10:56 50.02577 9.90076 21247 ft 435 kts 83°
2026-04-16 10:56 50.02873 9.94762 21247 ft 435 kts 83°
2026-04-16 10:56 50.03165 9.99441 21245 ft 435 kts 83°
2026-04-16 10:57 50.03456 10.04122 21237 ft 435 kts 83°
2026-04-16 10:57 50.03746 10.08803 21238 ft 435 kts 83°
2026-04-16 10:57 50.04035 10.13486 21240 ft 435 kts 83°
2026-04-16 10:57 50.04322 10.18163 21241 ft 435 kts 83°
2026-04-16 10:58 50.04607 10.22849 21242 ft 435 kts 84°
2026-04-16 10:58 50.04891 10.27537 21243 ft 435 kts 84°
2026-04-16 10:58 50.05173 10.32228 21244 ft 435 kts 84°
2026-04-16 10:58 50.05445 10.36800 21245 ft 435 kts 84°
2026-04-16 10:59 50.05717 10.41412 21237 ft 428 kts 85°
2026-04-16 10:59 50.05986 10.46011 21116 ft 421 kts 85°
2026-04-16 10:59 50.06247 10.50485 21244 ft 426 kts 84°
2026-04-16 10:59 50.06515 10.55116 21247 ft 432 kts 84°
2026-04-16 11:00 50.06780 10.59785 21241 ft 434 kts 84°
2026-04-16 11:00 50.07052 10.64458 21237 ft 434 kts 82°
2026-04-16 11:00 50.07640 10.69054 21239 ft 432 kts 72°
2026-04-16 11:00 50.08718 10.73405 21239 ft 430 kts 61°
2026-04-16 11:01 50.10243 10.77377 21238 ft 426 kts 51°
2026-04-16 11:01 50.12143 10.80912 21239 ft 424 kts 45°
2026-04-16 11:01 50.14118 10.84326 21238 ft 424 kts 45°
2026-04-16 11:01 50.16090 10.87749 21238 ft 424 kts 45°
2026-04-16 11:02 50.18054 10.91178 21239 ft 424 kts 45°
2026-04-16 11:02 50.20016 10.94616 21240 ft 424 kts 45°
2026-04-16 11:02 50.21986 10.98058 21241 ft 424 kts 45°
2026-04-16 11:02 50.23949 11.01490 21241 ft 424 kts 45°
2026-04-16 11:03 50.25911 11.04929 21242 ft 424 kts 45°
2026-04-16 11:03 50.27214 11.07218 21241 ft 424 kts 45°
2026-04-16 11:03 50.31133 11.14120 21237 ft 424 kts 45°
2026-04-16 11:04 50.34025 11.18148 21234 ft 418 kts 30°
2026-04-16 11:04 50.36555 11.20323 21231 ft 412 kts 19°
2026-04-16 11:04 50.38372 11.21342 21229 ft 409 kts 12°
2026-04-16 11:04 50.42046 11.22277 21227 ft 402 kts 358°
2026-04-16 11:05 50.44830 11.22167 21228 ft 400 kts 353°
2026-04-16 11:05 50.46676 11.22030 21228 ft 400 kts 353°
2026-04-16 11:05 50.49453 11.21824 21225 ft 400 kts 353°
2026-04-16 11:05 50.52226 11.21622 21224 ft 399 kts 353°
2026-04-16 11:06 50.55000 11.21417 21225 ft 399 kts 353°
2026-04-16 11:06 50.57784 11.21211 21227 ft 400 kts 353°
2026-04-16 11:06 50.60564 11.21049 21223 ft 401 kts 357°
2026-04-16 11:06 50.63353 11.21490 21223 ft 406 kts
2026-04-16 11:07 50.66079 11.22734 21224 ft 411 kts 18°
2026-04-16 11:07 50.68696 11.24601 21224 ft 413 kts 21°
2026-04-16 11:07 50.71303 11.26510 21225 ft 413 kts 21°
2026-04-16 11:07 50.73909 11.28409 21222 ft 413 kts 21°
2026-04-16 11:08 50.76517 11.30306 21224 ft 413 kts 21°
2026-04-16 11:08 50.79129 11.32205 21227 ft 413 kts 21°
2026-04-16 11:08 50.81745 11.34115 21229 ft 413 kts 21°
2026-04-16 11:08 50.84350 11.36026 21231 ft 413 kts 21°
2026-04-16 11:09 50.86959 11.37942 21232 ft 413 kts 21°
2026-04-16 11:09 50.89567 11.39857 21236 ft 413 kts 21°
2026-04-16 11:09 50.92174 11.41768 21233 ft 413 kts 21°
2026-04-16 11:09 50.94742 11.43656 21233 ft 413 kts 21°
2026-04-16 11:10 50.97344 11.45575 21236 ft 413 kts 21°
2026-04-16 11:10 50.99954 11.47504 21232 ft 413 kts 21°
2026-04-16 11:10 51.02562 11.49434 21232 ft 413 kts 21°
2026-04-16 11:10 51.05158 11.51359 21231 ft 413 kts 21°
2026-04-16 11:11 51.07733 11.53406 21224 ft 415 kts 27°
2026-04-16 11:11 51.10078 11.56111 21226 ft 420 kts 38°
2026-04-16 11:11 51.12086 11.59442 21002 ft 414 kts 49°
2026-04-16 11:11 51.13644 11.63260 20751 ft 409 kts 59°
2026-04-16 11:12 51.14942 11.67227 20502 ft 400 kts 60°
2026-04-16 11:12 51.16224 11.71141 20253 ft 396 kts 60°
2026-04-16 11:12 51.17495 11.75027 19999 ft 394 kts 60°
2026-04-16 11:12 51.18753 11.78878 19686 ft 389 kts 60°
2026-04-16 11:13 51.19996 11.82697 19167 ft 388 kts 60°
2026-04-16 11:13 51.21238 11.86515 18638 ft 386 kts 60°
2026-04-16 11:13 51.22402 11.90366 18117 ft 386 kts 67°
2026-04-16 11:13 51.23136 11.94473 17603 ft 385 kts 78°
2026-04-16 11:14 51.23418 11.98713 17084 ft 384 kts 85°
2026-04-16 11:14 51.23618 12.02938 16570 ft 382 kts 84°
2026-04-16 11:14 51.23820 12.07147 16063 ft 379 kts 84°
2026-04-16 11:14 51.24020 12.11321 15552 ft 376 kts 84°
2026-04-16 11:15 51.24218 12.15473 15055 ft 374 kts 84°
2026-04-16 11:15 51.24413 12.19590 14546 ft 371 kts 84°
2026-04-16 11:15 51.24606 12.23678 14043 ft 368 kts 84°
2026-04-16 11:15 51.24794 12.27684 13551 ft 365 kts 84°
2026-04-16 11:16 51.24982 12.31716 13049 ft 363 kts 84°
2026-04-16 11:16 51.25204 12.35715 12551 ft 360 kts 79°
2026-04-16 11:16 51.25837 12.39599 12051 ft 355 kts 67°
2026-04-16 11:16 51.26787 12.43155 11572 ft 352 kts 64°
2026-04-16 11:17 51.27757 12.46719 11182 ft 346 kts 64°
2026-04-16 11:17 51.28698 12.50210 10892 ft 338 kts 64°
2026-04-16 11:17 51.29608 12.53598 10747 ft 327 kts 64°
2026-04-16 11:17 51.30490 12.56887 10615 ft 316 kts 64°
2026-04-16 11:18 51.31181 12.60154 10483 ft 308 kts 77°
2026-04-16 11:18 51.31362 12.63544 10227 ft 304 kts 87°
2026-04-16 11:18 51.31408 12.66920 9927 ft 302 kts 88°
2026-04-16 11:18 51.31443 12.70271 9590 ft 301 kts 88°
2026-04-16 11:19 51.31477 12.73602 9284 ft 299 kts 88°
2026-04-16 11:19 51.31513 12.76908 8958 ft 297 kts 88°
2026-04-16 11:19 51.31552 12.80162 8646 ft 295 kts 88°
2026-04-16 11:19 51.31590 12.83440 8327 ft 294 kts 88°
2026-04-16 11:20 51.31627 12.86697 8083 ft 290 kts 88°
2026-04-16 11:20 51.31662 12.89856 7955 ft 281 kts 88°
2026-04-16 11:20 51.31697 12.92938 7827 ft 273 kts 88°
2026-04-16 11:20 51.31770 12.95913 7703 ft 264 kts 79°
2026-04-16 11:21 51.32361 12.98606 7577 ft 252 kts 55°
2026-04-16 11:21 51.33492 13.00616 7449 ft 238 kts 32°
2026-04-16 11:21 51.34924 13.01744 7294 ft 224 kts 11°
2026-04-16 11:21 51.36423 13.01976 7149 ft 209 kts 351°
2026-04-16 11:22 51.37795 13.01446 6978 ft 200 kts 333°
2026-04-16 11:22 51.38953 13.00280 6724 ft 196 kts 316°
2026-04-16 11:22 51.39821 12.98612 6450 ft 193 kts 299°
2026-04-16 11:22 51.40395 12.96740 6352 ft 181 kts 295°
2026-04-16 11:23 51.40929 12.95001 6221 ft 171 kts 296°
2026-04-16 11:23 51.41442 12.93335 6079 ft 162 kts 296°
2026-04-16 11:23 51.41928 12.91750 5946 ft 154 kts 296°
2026-04-16 11:23 51.42391 12.90251 5820 ft 146 kts 296°
2026-04-16 11:24 51.42832 12.88818 5617 ft 140 kts 295°
2026-04-16 11:24 51.43254 12.87445 5319 ft 136 kts 295°
2026-04-16 11:24 51.43675 12.86070 5022 ft 142 kts 295°
2026-04-16 11:24 51.44144 12.84538 5030 ft 160 kts 295°
2026-04-16 11:25 51.44641 12.82912 5015 ft 164 kts 295°
2026-04-16 11:25 51.45131 12.81257 5014 ft 164 kts 291°
2026-04-16 11:25 51.45460 12.79509 5013 ft 164 kts 281°
2026-04-16 11:25 51.45591 12.77688 5010 ft 164 kts 272°
2026-04-16 11:26 51.45539 12.75859 5012 ft 164 kts 266°
2026-04-16 11:26 51.45461 12.74053 5010 ft 165 kts 266°
2026-04-16 11:26 51.45384 12.72222 5010 ft 164 kts 267°
2026-04-16 11:26 51.45306 12.70391 5012 ft 164 kts 266°
2026-04-16 11:27 51.45226 12.68566 5009 ft 165 kts 266°
2026-04-16 11:27 51.45145 12.66736 5007 ft 165 kts 266°
2026-04-16 11:27 51.45067 12.64905 5009 ft 165 kts 267°
2026-04-16 11:27 51.44989 12.63072 5009 ft 165 kts 266°
2026-04-16 11:28 51.44908 12.61237 5012 ft 165 kts 266°
2026-04-16 11:28 51.44824 12.59411 5009 ft 165 kts 266°
2026-04-16 11:28 51.44746 12.57563 4800 ft 167 kts 268°
2026-04-16 11:28 51.44700 12.55720 4312 ft 165 kts 269°
2026-04-16 11:29 51.44668 12.53866 3833 ft 164 kts 267°
2026-04-16 11:29 51.44588 12.52180 3802 ft 143 kts 266°
2026-04-16 11:29 51.44498 12.50623 3783 ft 140 kts 264°
2026-04-16 11:29 51.44397 12.49066 3468 ft 140 kts 265°
2026-04-16 11:30 51.44314 12.47525 3120 ft 137 kts 266°
2026-04-16 11:30 51.44239 12.45999 2866 ft 138 kts 266°
2026-04-16 11:30 51.44168 12.44487 2667 ft 138 kts 266°
2026-04-16 11:30 51.44098 12.42956 2465 ft 137 kts 266°
2026-04-16 11:31 51.44029 12.41432 2273 ft 137 kts 266°
2026-04-16 11:31 51.43960 12.39912 2083 ft 137 kts 266°
2026-04-16 11:31 51.43892 12.38393 1908 ft 137 kts 266°
2026-04-16 11:31 51.43823 12.36877 1715 ft 136 kts 266°
2026-04-16 11:32 51.43755 12.35365 1533 ft 136 kts 266°
2026-04-16 11:32 51.43688 12.33860 1355 ft 135 kts 267°
2026-04-16 11:32 51.43618 12.32356 1180 ft 135 kts 266°
2026-04-16 11:32 51.43534 12.30857 1014 ft 135 kts 265°
2026-04-16 11:33 51.43449 12.29356 830 ft 135 kts 269°
2026-04-16 11:33 51.43427 12.27850 647 ft 136 kts 266°
2026-04-16 11:33 51.43356 12.26339 473 ft 136 kts 264°
2026-04-16 11:33 51.43284 12.25050 449 ft 80 kts 265°
2026-04-16 11:34 51.43261 12.24517 443 ft 38 kts 266°
2026-04-16 11:34 51.43240 12.24092 441 ft 37 kts 262°
2026-04-16 11:34 51.43177 12.23765 437 ft 21 kts 240°
2026-04-16 11:34 51.43117 12.23608 437 ft 13 kts 237°
2026-04-16 11:35 51.43080 12.23521 430 ft 0 kts 236°
2026-04-16 11:35 51.43074 12.23507 443 ft 4 kts 234°
2026-04-16 11:36 51.43041 12.23462 443 ft 9 kts 211°
2026-04-16 11:36 51.42957 12.23436 430 ft 16 kts 186°
2026-04-16 11:36 51.42891 12.23289 435 ft 19 kts 269°
2026-04-16 11:36 51.42881 12.23058 434 ft 23 kts 265°
2026-04-16 11:37 51.42870 12.22792 427 ft 25 kts 266°
2026-04-16 11:37 51.42858 12.22505 431 ft 28 kts 266°
2026-04-16 11:37 51.42842 12.22184 426 ft 30 kts 265°
2026-04-16 11:37 51.42831 12.21939 420 ft 22 kts 265°
2026-04-16 11:38 51.42816 12.21675 430 ft 25 kts 265°
2026-04-16 11:38 51.42804 12.21411 423 ft 10 kts 265°
2026-04-16 11:38 51.42799 12.21309 426 ft 9 kts 264°
2026-04-16 11:38 51.42756 12.21227 430 ft 11 kts 201°
2026-04-16 11:39 51.42670 12.21188 431 ft 14 kts 195°
2026-04-16 11:39 51.42565 12.21144 436 ft 17 kts 194°
2026-04-16 11:39 51.42440 12.21091 436 ft 20 kts 196°
2026-04-16 11:39 51.42294 12.21024 433 ft 20 kts 194°
2026-04-16 11:40 51.42153 12.20962 417 ft 24 kts 194°
2026-04-16 11:40 51.42032 12.20927 419 ft 16 kts 171°
2026-04-16 11:40 51.41970 12.21070 425 ft 17 kts 104°
2026-04-16 11:40 51.41941 12.21254 432 ft 17 kts 105°
2026-04-16 11:41 51.41907 12.21443 426 ft 18 kts 105°
2026-04-16 11:41 51.41872 12.21643 437 ft 20 kts 105°
2026-04-16 11:41 51.41834 12.21866 432 ft 16 kts 104°
2026-04-16 11:41 51.41825 12.21982 433 ft 7 kts 61°
2026-04-16 11:42 51.41877 12.22019 436 ft 10 kts 16°
2026-04-16 11:42 51.41904 12.22031 436 ft 0 kts 15°